| time (UTC) | temp F | wind direction | speed MPH | gust MPH | rain 1hr in | rain 24hr in | rain mn in | humidity % | barometer mb |
| 20260504182543 | 46 | 321 | 7.0 | 13.0 | 0.00 | 0.00 | 0.00 | 83 | 1005.5 |
| 20260504182044 | 45 | 321 | 5.0 | 12.0 | 0.00 | 0.00 | 0.00 | 84 | 1005.5 |
| 20260504181549 | 45 | 321 | 6.0 | 12.0 | 0.00 | 0.00 | 0.00 | 84 | 1005.7 |
| 20260504181044 | 45 | 321 | 4.0 | 8.0 | 0.00 | 0.00 | 0.00 | 85 | 1005.6 |
| 20260504180544 | 45 | 321 | 3.0 | 9.0 | 0.00 | 0.00 | 0.00 | 87 | 1005.6 |
| 20260504180055 | 45 | 321 | 6.0 | 9.0 | 0.00 | 0.00 | 0.00 | 86 | 1005.6 |
| 20260504175544 | 45 | 321 | 5.0 | 9.0 | 0.00 | 0.00 | 0.00 | 86 | 1005.6 |
| 20260504175043 | 45 | 321 | 7.0 | 9.0 | 0.00 | 0.00 | 0.00 | 86 | 1005.5 |
| 20260504174549 | 45 | 321 | 7.0 | 11.0 | 0.00 | 0.00 | 0.00 | 86 | 1005.5 |
| 20260504174043 | 45 | 321 | 8.0 | 11.0 | 0.00 | 0.00 | 0.00 | 85 | 1005.5 |
| 20260504173543 | 45 | 321 | 8.0 | 12.0 | 0.00 | 0.00 | 0.00 | 85 | 1005.5 |
| 20260504173049 | 45 | 321 | 7.0 | 12.0 | 0.00 | 0.00 | 0.00 | 84 | 1005.5 |
| 20260504172543 | 45 | 321 | 7.0 | 10.0 | 0.00 | 0.00 | 0.00 | 85 | 1005.6 |
| 20260504172043 | 45 | 321 | 7.0 | 11.0 | 0.00 | 0.00 | 0.00 | 84 | 1005.6 |
| 20260504171550 | 45 | 321 | 8.0 | 15.0 | 0.00 | 0.00 | 0.00 | 83 | 1005.6 |
| 20260504171042 | 45 | 321 | 9.0 | 15.0 | 0.00 | 0.00 | 0.00 | 83 | 1005.5 |
| 20260504170544 | 45 | 320 | 9.0 | 15.0 | 0.00 | 0.00 | 0.00 | 82 | 1005.4 |
| 20260504151041 | 45 | 317 | 9.0 | 11.0 | 0.00 | 0.00 | 0.00 | 82 | 1004.8 |
| 20260504150543 | 45 | 317 | 6.0 | 9.0 | 0.00 | 0.00 | 0.00 | 82 | 1004.8 |
| 20260504141043 | 44 | 315 | 6.0 | 9.0 | 0.00 | 0.00 | 0.00 | 82 | 1004.8 |
| 20260504140543 | 44 | 315 | 5.0 | 7.0 | 0.00 | 0.00 | 0.00 | 82 | 1004.8 |
| 20260504140106 | 44 | 314 | 5.0 | 6.0 | 0.00 | 0.00 | 0.00 | 82 | 1004.8 |
| 20260504130544 | 41 | 314 | 1.0 | 3.0 | 0.00 | 0.00 | 0.00 | 79 | 1005.5 |
| 20260504120108 | 39 | 314 | 2.0 | 3.0 | 0.00 | 0.00 | 0.00 | 78 | 1006.2 |
| 20260504110547 | 29 | 0 | 0.0 | 0.0 | 0.00 | 0.00 | 0.00 | 93 | 1006.3 |
| 20260504100547 | 27 | 0 | 0.0 | 0.0 | 0.00 | 0.00 | 0.00 | 92 | 1006.2 |
| 20260504081555 | 27 | 0 | 0.0 | 0.0 | 0.00 | 0.00 | 0.00 | 91 | 1006.1 |
| 20260504081048 | 27 | 0 | 0.0 | 0.0 | 0.00 | 0.00 | 0.00 | 91 | 1006.2 |
| 20260504080547 | 27 | 0 | 0.0 | 0.0 | 0.00 | 0.00 | 0.00 | 91 | 1006.2 |
| 20260504050541 | 28 | 0 | 0.0 | 0.0 | 0.00 | 0.00 | 0.00 | 89 | 1006.0 |
| 20260504045542 | 28 | 0 | 0.0 | 0.0 | 0.00 | 0.00 | 0.00 | 89 | 1006.0 |
| 20260504045041 | 28 | 0 | 0.0 | 0.0 | 0.00 | 0.00 | 0.00 | 89 | 1006.0 |
| 20260504044552 | 28 | 0 | 0.0 | 0.0 | 0.00 | 0.00 | 0.00 | 88 | 1006.1 |
| 20260504044042 | 28 | 0 | 0.0 | 0.0 | 0.00 | 0.00 | 0.00 | 89 | 1006.1 |
| 20260504043541 | 28 | 0 | 0.0 | 0.0 | 0.00 | 0.00 | 0.00 | 88 | 1006.1 |
| 20260504043051 | 28 | 0 | 0.0 | 0.0 | 0.00 | 0.00 | 0.00 | 88 | 1006.2 |
| 20260504042541 | 28 | 0 | 0.0 | 0.0 | 0.00 | 0.00 | 0.00 | 88 | 1006.2 |
| 20260504042041 | 28 | 0 | 0.0 | 0.0 | 0.00 | 0.00 | 0.00 | 88 | 1006.2 |
| 20260504041552 | 28 | 0 | 0.0 | 0.0 | 0.00 | 0.00 | 0.00 | 88 | 1006.3 |
| 20260504041041 | 28 | 0 | 0.0 | 0.0 | 0.00 | 0.00 | 0.00 | 88 | 1006.1 |
| 20260504040541 | 28 | 0 | 0.0 | 0.0 | 0.00 | 0.00 | 0.00 | 88 | 1006.2 |
| 20260504040057 | 28 | 0 | 0.0 | 0.0 | 0.00 | 0.00 | 0.00 | 88 | 1006.1 |
| 20260504035542 | 28 | 0 | 0.0 | 0.0 | 0.00 | 0.00 | 0.00 | 87 | 1006.1 |
| 20260504035042 | 29 | 0 | 0.0 | 0.0 | 0.00 | 0.00 | 0.00 | 87 | 1006.1 |
| 20260504034552 | 29 | 0 | 0.0 | 0.0 | 0.00 | 0.00 | 0.00 | 87 | 1006.1 |
| 20260504034045 | 29 | 0 | 0.0 | 0.0 | 0.00 | 0.00 | 0.00 | 87 | 1006.1 |
| 20260504033541 | 29 | 0 | 0.0 | 0.0 | 0.00 | 0.00 | 0.00 | 87 | 1006.0 |
| 20260504033057 | 29 | 0 | 0.0 | 0.0 | 0.00 | 0.00 | 0.00 | 87 | 1005.9 |
| 20260504032544 | 29 | 0 | 0.0 | 0.0 | 0.00 | 0.00 | 0.00 | 87 | 1005.9 |
| 20260504032041 | 29 | 0 | 0.0 | 0.0 | 0.00 | 0.00 | 0.00 | 86 | 1006.1 |
| 20260504031602 | 29 | 0 | 0.0 | 0.0 | 0.00 | 0.00 | 0.00 | 86 | 1006.1 |
| 20260504031045 | 29 | 0 | 0.0 | 0.0 | 0.00 | 0.00 | 0.00 | 86 | 1006.0 |
| 20260504030541 | 29 | 0 | 0.0 | 0.0 | 0.00 | 0.00 | 0.00 | 86 | 1006.0 |
| 20260504030053 | 29 | 0 | 0.0 | 0.0 | 0.00 | 0.00 | 0.00 | 85 | 1005.9 |
| 20260504025542 | 30 | 0 | 0.0 | 0.0 | 0.00 | 0.00 | 0.00 | 85 | 1006.0 |
| 20260504025043 | 30 | 0 | 0.0 | 0.0 | 0.00 | 0.00 | 0.00 | 84 | 1006.0 |
| 20260504024600 | 30 | 0 | 0.0 | 0.0 | 0.00 | 0.00 | 0.00 | 84 | 1006.0 |
| 20260504024043 | 31 | 0 | 0.0 | 0.0 | 0.00 | 0.00 | 0.00 | 84 | 1006.1 |
| 20260504023547 | 31 | 0 | 0.0 | 0.0 | 0.00 | 0.00 | 0.00 | 83 | 1006.1 |
| 20260504023054 | 31 | 0 | 0.0 | 0.0 | 0.00 | 0.00 | 0.00 | 83 | 1006.1 |
| 20260504022542 | 32 | 0 | 0.0 | 0.0 | 0.00 | 0.00 | 0.00 | 83 | 1006.1 |
| 20260504022042 | 32 | 0 | 0.0 | 0.0 | 0.00 | 0.00 | 0.00 | 82 | 1006.1 |
| 20260504021556 | 33 | 0 | 0.0 | 0.0 | 0.00 | 0.00 | 0.00 | 82 | 1006.0 |
| 20260504021041 | 33 | 0 | 0.0 | 0.0 | 0.00 | 0.00 | 0.00 | 81 | 1006.1 |
| 20260504020541 | 34 | 0 | 0.0 | 0.0 | 0.00 | 0.00 | 0.00 | 81 | 1006.0 |
| 20260504020050 | 35 | 0 | 0.0 | 0.0 | 0.00 | 0.00 | 0.00 | 80 | 1006.0 |
| 20260504015546 | 35 | 0 | 0.0 | 0.0 | 0.00 | 0.00 | 0.00 | 78 | 1006.1 |
| 20260504015046 | 37 | 0 | 0.0 | 4.0 | 0.00 | 0.00 | 0.00 | 75 | 1006.1 |
| 20260504014552 | 39 | 0 | 1.0 | 4.0 | 0.00 | 0.00 | 0.00 | 71 | 1006.1 |
| 20260504014043 | 40 | 314 | 3.0 | 4.0 | 0.00 | 0.00 | 0.00 | 76 | 1006.2 |
| 20260504013545 | 40 | 314 | 3.0 | 5.0 | 0.00 | 0.00 | 0.00 | 73 | 1006.1 |
| 20260504013104 | 40 | 314 | 3.0 | 5.0 | 0.00 | 0.00 | 0.00 | 72 | 1006.1 |
| 20260504012546 | 40 | 314 | 3.0 | 5.0 | 0.00 | 0.00 | 0.00 | 72 | 1006.1 |
| 20260504012045 | 40 | 314 | 3.0 | 5.0 | 0.00 | 0.00 | 0.00 | 72 | 1006.0 |
| 20260504011550 | 40 | 314 | 4.0 | 5.0 | 0.00 | 0.00 | 0.00 | 73 | 1005.8 |
| 20260504011046 | 40 | 314 | 4.0 | 4.0 | 0.00 | 0.00 | 0.00 | 71 | 1005.8 |
| 20260504010542 | 40 | 314 | 3.0 | 4.0 | 0.00 | 0.00 | 0.00 | 73 | 1005.8 |
| 20260504010057 | 40 | 314 | 1.0 | 4.0 | 0.00 | 0.00 | 0.00 | 73 | 1005.8 |
| 20260504005542 | 40 | 314 | 2.0 | 4.0 | 0.00 | 0.00 | 0.00 | 71 | 1005.8 |
| 20260504005042 | 40 | 314 | 3.0 | 4.0 | 0.00 | 0.00 | 0.00 | 71 | 1005.8 |
| 20260504004613 | 40 | 314 | 2.0 | 4.0 | 0.00 | 0.00 | 0.00 | 69 | 1005.6 |
| 20260504004046 | 40 | 314 | 2.0 | 4.0 | 0.00 | 0.00 | 0.00 | 72 | 1005.5 |
| 20260504003545 | 40 | 314 | 2.0 | 6.0 | 0.00 | 0.00 | 0.00 | 71 | 1005.6 |
| 20260504003049 | 40 | 314 | 3.0 | 6.0 | 0.00 | 0.00 | 0.00 | 68 | 1005.6 |
| 20260504002545 | 40 | 314 | 3.0 | 6.0 | 0.00 | 0.00 | 0.00 | 67 | 1005.5 |
| 20260504002048 | 40 | 314 | 3.0 | 8.0 | 0.00 | 0.00 | 0.00 | 70 | 1005.5 |
| 20260504001558 | 40 | 314 | 3.0 | 8.0 | 0.00 | 0.00 | 0.00 | 67 | 1005.4 |
| 20260504001045 | 41 | 314 | 3.0 | 9.0 | 0.00 | 0.00 | 0.00 | 67 | 1005.4 |
| 20260504000542 | 41 | 314 | 2.0 | 9.0 | 0.00 | 0.00 | 0.00 | 67 | 1005.4 |
| 20260504000055 | 41 | 314 | 3.0 | 9.0 | 0.00 | 0.00 | 0.00 | 66 | 1005.3 |
| 20260503235545 | 41 | 314 | 2.0 | 9.0 | 0.00 | 0.00 | 0.00 | 68 | 1005.2 |
| 20260503235048 | 41 | 314 | 3.0 | 8.0 | 0.00 | 0.00 | 0.00 | 67 | 1005.3 |
| 20260503234555 | 41 | 314 | 2.0 | 4.0 | 0.00 | 0.00 | 0.00 | 65 | 1005.2 |
| 20260503234046 | 41 | 314 | 2.0 | 5.0 | 0.00 | 0.00 | 0.00 | 63 | 1005.2 |
| 20260503233546 | 41 | 314 | 2.0 | 10.0 | 0.00 | 0.00 | 0.00 | 62 | 1005.2 |
| 20260503233057 | 42 | 314 | 3.0 | 11.0 | 0.00 | 0.00 | 0.00 | 66 | 1005.2 |
| 20260503232543 | 42 | 314 | 3.0 | 11.0 | 0.00 | 0.00 | 0.00 | 62 | 1005.2 |
| 20260503232045 | 42 | 314 | 2.0 | 7.0 | 0.00 | 0.00 | 0.00 | 66 | 1005.2 |
| 20260503231555 | 42 | 314 | 4.0 | 7.0 | 0.00 | 0.00 | 0.00 | 63 | 1005.2 |
| 20260503231044 | 42 | 314 | 4.0 | 10.0 | 0.00 | 0.00 | 0.00 | 63 | 1005.1 |
| 20260503230545 | 42 | 314 | 4.0 | 10.0 | 0.00 | 0.00 | 0.00 | 65 | 1004.9 |
| 20260503230053 | 41 | 314 | 3.0 | 9.0 | 0.00 | 0.00 | 0.00 | 66 | 1005.0 |
| 20260503225542 | 41 | 314 | 4.0 | 9.0 | 0.00 | 0.00 | 0.00 | 63 | 1005.1 |
| 20260503225047 | 42 | 314 | 4.0 | 8.0 | 0.00 | 0.00 | 0.00 | 62 | 1005.1 |
| 20260503224551 | 42 | 314 | 4.0 | 12.0 | 0.00 | 0.00 | 0.00 | 62 | 1004.9 |
| 20260503224044 | 42 | 314 | 5.0 | 12.0 | 0.00 | 0.00 | 0.00 | 65 | 1004.9 |
| 20260503223544 | 42 | 314 | 8.0 | 12.0 | 0.00 | 0.00 | 0.00 | 62 | 1004.7 |
| 20260503223058 | 42 | 314 | 2.0 | 5.0 | 0.00 | 0.00 | 0.00 | 59 | 1004.6 |
| 20260503222545 | 43 | 314 | 3.0 | 6.0 | 0.00 | 0.00 | 0.00 | 58 | 1004.6 |
| 20260503222047 | 43 | 314 | 3.0 | 7.0 | 0.00 | 0.00 | 0.00 | 59 | 1004.6 |
| 20260503221553 | 43 | 314 | 3.0 | 7.0 | 0.00 | 0.00 | 0.00 | 58 | 1004.7 |
| 20260503221050 | 43 | 314 | 3.0 | 7.0 | 0.00 | 0.00 | 0.00 | 56 | 1004.7 |
| 20260503220545 | 43 | 314 | 3.0 | 7.0 | 0.00 | 0.00 | 0.00 | 56 | 1004.7 |
| 20260503220100 | 43 | 314 | 2.0 | 7.0 | 0.00 | 0.00 | 0.00 | 57 | 1004.8 |
| 20260503215541 | 42 | 314 | 2.0 | 5.0 | 0.00 | 0.00 | 0.00 | 58 | 1004.7 |
| 20260503215044 | 43 | 314 | 2.0 | 5.0 | 0.00 | 0.00 | 0.00 | 58 | 1004.7 |
| 20260503214551 | 43 | 314 | 2.0 | 7.0 | 0.00 | 0.00 | 0.00 | 59 | 1004.7 |
| 20260503214045 | 43 | 314 | 3.0 | 7.0 | 0.00 | 0.00 | 0.00 | 58 | 1004.6 |
| 20260503213542 | 42 | 314 | 2.0 | 6.0 | 0.00 | 0.00 | 0.00 | 57 | 1004.7 |
| 20260503213049 | 42 | 314 | 3.0 | 6.0 | 0.00 | 0.00 | 0.00 | 56 | 1004.8 |
| 20260503212542 | 42 | 314 | 2.0 | 6.0 | 0.00 | 0.00 | 0.00 | 58 | 1004.8 |
| 20260503212046 | 42 | 314 | 1.0 | 7.0 | 0.00 | 0.00 | 0.00 | 58 | 1004.8 |
| 20260503211603 | 42 | 314 | 3.0 | 7.0 | 0.00 | 0.00 | 0.00 | 56 | 1004.7 |
| 20260503211049 | 42 | 314 | 3.0 | 6.0 | 0.00 | 0.00 | 0.00 | 56 | 1004.7 |
| 20260503210545 | 43 | 314 | 3.0 | 6.0 | 0.00 | 0.00 | 0.00 | 57 | 1004.7 |
| 20260503210051 | 43 | 314 | 1.0 | 5.0 | 0.00 | 0.00 | 0.00 | 56 | 1004.6 |
| 20260503205545 | 43 | 314 | 2.0 | 6.0 | 0.00 | 0.00 | 0.00 | 54 | 1004.7 |
| 20260503205045 | 43 | 314 | 2.0 | 6.0 | 0.00 | 0.00 | 0.00 | 55 | 1004.8 |
| 20260503204551 | 43 | 314 | 1.0 | 7.0 | 0.00 | 0.00 | 0.00 | 55 | 1004.8 |
| 20260503204045 | 43 | 314 | 2.0 | 7.0 | 0.00 | 0.00 | 0.00 | 54 | 1004.7 |
| 20260503203545 | 43 | 314 | 2.0 | 5.0 | 0.00 | 0.00 | 0.00 | 54 | 1004.8 |
| 20260503203055 | 43 | 314 | 2.0 | 5.0 | 0.00 | 0.00 | 0.00 | 57 | 1004.6 |
| 20260503202545 | 43 | 314 | 2.0 | 5.0 | 0.00 | 0.00 | 0.00 | 55 | 1004.8 |
| 20260503202042 | 43 | 314 | 3.0 | 5.0 | 0.00 | 0.00 | 0.00 | 53 | 1004.7 |
| 20260503201553 | 43 | 314 | 3.0 | 5.0 | 0.00 | 0.00 | 0.00 | 53 | 1004.8 |
| 20260503201043 | 44 | 314 | 2.0 | 6.0 | 0.00 | 0.00 | 0.00 | 55 | 1004.7 |
| 20260503200545 | 44 | 314 | 3.0 | 6.0 | 0.00 | 0.00 | 0.00 | 53 | 1004.7 |
| 20260503200053 | 44 | 314 | 2.0 | 6.0 | 0.00 | 0.00 | 0.00 | 54 | 1004.7 |
| 20260503195544 | 44 | 314 | 3.0 | 8.0 | 0.00 | 0.00 | 0.00 | 53 | 1004.7 |
| 20260503195041 | 44 | 314 | 2.0 | 8.0 | 0.00 | 0.00 | 0.00 | 52 | 1004.7 |
| 20260503194551 | 44 | 314 | 4.0 | 8.0 | 0.00 | 0.00 | 0.00 | 53 | 1004.6 |
| 20260503194044 | 44 | 314 | 3.0 | 9.0 | 0.00 | 0.00 | 0.00 | 54 | 1004.6 |
| 20260503193543 | 44 | 314 | 3.0 | 9.0 | 0.00 | 0.00 | 0.00 | 52 | 1004.6 |
| 20260503193059 | 44 | 314 | 3.0 | 6.0 | 0.00 | 0.00 | 0.00 | 52 | 1004.5 |
| 20260503192540 | 44 | 314 | 4.0 | 7.0 | 0.00 | 0.00 | 0.00 | 53 | 1004.4 |
| 20260503192041 | 45 | 314 | 3.0 | 7.0 | 0.00 | 0.00 | 0.00 | 52 | 1004.5 |
| 20260503191556 | 45 | 314 | 4.0 | 7.0 | 0.00 | 0.00 | 0.00 | 54 | 1004.4 |
| 20260503191043 | 45 | 314 | 2.0 | 7.0 | 0.00 | 0.00 | 0.00 | 52 | 1004.5 |
| 20260503190541 | 45 | 314 | 4.0 | 7.0 | 0.00 | 0.00 | 0.00 | 52 | 1004.5 |
| 20260503190058 | 45 | 314 | 2.0 | 7.0 | 0.00 | 0.00 | 0.00 | 52 | 1004.5 |
| 20260503185541 | 45 | 314 | 2.0 | 7.0 | 0.00 | 0.00 | 0.00 | 51 | 1004.6 |
| 20260503185046 | 44 | 314 | 3.0 | 8.0 | 0.00 | 0.00 | 0.00 | 53 | 1004.6 |
| 20260503184606 | 44 | 314 | 3.0 | 8.0 | 0.00 | 0.00 | 0.00 | 54 | 1004.4 |
| 20260503184042 | 44 | 314 | 4.0 | 8.0 | 0.00 | 0.00 | 0.00 | 56 | 1004.4 |
| 20260503183541 | 45 | 314 | 2.0 | 7.0 | 0.00 | 0.00 | 0.00 | 58 | 1004.5 |
| 20260503183054 | 44 | 314 | 2.0 | 9.0 | 0.00 | 0.00 | 0.00 | 56 | 1004.5 |